Capt. George Brumley — WDI3717 — position and weather

sailwx.info

Track history (hours):
 
Tides and Currents Weather Stations Pressure Air Temp Water Temp Dewpoint Dewpoint Depression Visibility Wind Speed Wind Dir Waves Ship Positions

Capt. George Brumley

Owner: Genesis Marine, LLC, Houston, TX. More information available from US FCC via Universal Licensing System and Coast Guard Vessel Documentation Center.

Last reported at 2017-Nov-24 13:25 UTC. Time now 2017-Nov-25 02:09 UTC.
Position N 29°49' W 092°03'.

Length 25 m; draft 3 m.

Type: Other ship. MMSI: 367691190.

Date/timePositionNaut miles runAvg speedWind from/ knotsBaromVisibWave heightAir tempDewpointWater temp
2017-Nov-24 13:25N 29°49' W 092°03'2 4.7
2017-Nov-24 13:01N 29°48' W 092°05'2 4.7
2017-Nov-24 12:31N 29°47' W 092°08'2 4.0
2017-Nov-24 12:00N 29°47' W 092°10'2 3.7
2017-Nov-24 11:31N 29°47' W 092°12'1 1.7
2017-Nov-24 11:01N 29°47' W 092°13'1 1.9
2017-Nov-24 10:31N 29°48' W 092°14'0 0.0
2017-Nov-24 10:01N 29°48' W 092°14'0 0.0
2017-Nov-24 09:30N 29°48' W 092°14'0 0.0
2017-Nov-24 09:01N 29°48' W 092°14'0 0.0
2017-Nov-24 08:30N 29°48' W 092°14'0 0.0
2017-Nov-24 08:01N 29°48' W 092°14'0 0.0
2017-Nov-24 07:31N 29°48' W 092°14'0 0.1
2017-Nov-24 07:01N 29°48' W 092°14'0 0.1
2017-Nov-24 06:31N 29°48' W 092°14'1 2.0
2017-Nov-24 06:00N 29°48' W 092°15'2 3.6
2017-Nov-24 05:31N 29°49' W 092°17'2 3.4
2017-Nov-24 05:00N 29°50' W 092°19'2 4.0
2017-Nov-24 04:30N 29°51' W 092°21'38 4.3
2017-Nov-23 19:39N 29°56' W 093°04'1 4.7
2017-Nov-23 19:25N 29°56' W 093°06'2 4.7
2017-Nov-23 19:00N 29°56' W 093°08'2 4.0
2017-Nov-23 18:30N 29°57' W 093°10'2 3.6
2017-Nov-23 18:01N 29°58' W 093°11'2 3.3
2017-Nov-23 17:30N 29°59' W 093°13'2 4.0
2017-Nov-23 17:01N 30°01' W 093°14'1 2.3
2017-Nov-23 16:31N 30°02' W 093°15'1 2.8
2017-Nov-23 16:00N 30°03' W 093°16'2 3.2
2017-Nov-23 15:30N 30°04' W 093°16'1 2.9
2017-Nov-23 15:01N 30°05' W 093°18'1 1.4
2017-Nov-23 14:31N 30°06' W 093°18'0 0.0
2017-Nov-23 14:01N 30°06' W 093°18'0 0.0
2017-Nov-23 13:31N 30°06' W 093°18'0 0.0
2017-Nov-23 13:00N 30°06' W 093°18'0 0.2
2017-Nov-23 12:31N 30°06' W 093°18'1 1.4
2017-Nov-23 12:01N 30°06' W 093°19'2 3.9
2017-Nov-23 11:30N 30°04' W 093°21'1 2.7
2017-Nov-23 11:01N 30°04' W 093°22'1 1.2
2017-Nov-23 10:31N 30°04' W 093°23'1 2.7
2017-Nov-23 10:00N 30°04' W 093°24'1 2.6
2017-Nov-23 09:31N 30°04' W 093°26'0 0.2
2017-Nov-23 09:01N 30°04' W 093°26'0 0.1
2017-Nov-23 08:31N 30°04' W 093°26'0 0.0
2017-Nov-23 08:01N 30°04' W 093°26'0 0.0
2017-Nov-23 07:30N 30°04' W 093°26'0 0.0
2017-Nov-23 07:00N 30°04' W 093°26'0 0.0
2017-Nov-23 06:30N 30°04' W 093°26'0 0.0
2017-Nov-23 06:00N 30°04' W 093°26'0 0.0
2017-Nov-23 05:31N 30°04' W 093°26'0 0.0
2017-Nov-23 05:01N 30°04' W 093°26'0 0.0
2017-Nov-23 04:31N 30°04' W 093°26'0 0.0
2017-Nov-23 04:01N 30°04' W 093°26'0 0.0
2017-Nov-23 03:31N 30°04' W 093°26'0 0.0
2017-Nov-23 03:01N 30°04' W 093°26'0 0.0
2017-Nov-23 02:30N 30°04' W 093°26'0 0.0
2017-Nov-23 02:00N 30°04' W 093°26'0 0.0
2017-Nov-23 01:31N 30°04' W 093°26'0 0.0
2017-Nov-23 01:01N 30°04' W 093°26'0 0.0
2017-Nov-23 00:31N 30°04' W 093°26'0 0.0
2017-Nov-23 00:01N 30°04' W 093°26'0 0.0
2017-Nov-22 23:31N 30°04' W 093°26'0 0.0
2017-Nov-22 23:00N 30°04' W 093°26'0 0.0
2017-Nov-22 22:31N 30°04' W 093°26'0 0.0
2017-Nov-22 22:01N 30°04' W 093°26'0 0.0
2017-Nov-22 21:31N 30°04' W 093°26'0 0.0
2017-Nov-22 21:00N 30°04' W 093°26'0 0.2
2017-Nov-22 20:30N 30°04' W 093°26'0 0.9
2017-Nov-22 20:01N 30°04' W 093°26'1 2.3
2017-Nov-22 19:31N 30°04' W 093°28'  
2017-Nov-19 23:50N 29°33' W 094°54'2 5.2
2017-Nov-19 23:30N 29°34' W 094°56'3 5.7
2017-Nov-19 23:00N 29°37' W 094°57'3 5.9
2017-Nov-19 22:30N 29°40' W 094°58'3 5.7
2017-Nov-19 22:00N 29°42' W 095°00'2 4.2
2017-Nov-19 21:30N 29°44' W 095°01'0 0.3
2017-Nov-19 20:35N 29°44' W 095°01'0 0.0
2017-Nov-19 19:15N 29°44' W 095°01'0 0.0
2017-Nov-19 18:52N 29°44' W 095°01'0 0.0
2017-Nov-19 04:13N 29°44' W 095°01'0 0.0
2017-Nov-19 03:56N 29°44' W 095°01'0 0.0
2017-Nov-19 03:16N 29°44' W 095°01'0 0.0
2017-Nov-19 02:43N 29°44' W 095°01'0 0.0
2017-Nov-18 22:12N 29°44' W 095°01'0 0.0
2017-Nov-18 21:56N 29°44' W 095°01'0 0.1
2017-Nov-18 20:40N 29°44' W 095°01'0 0.0
2017-Nov-18 20:11N 29°44' W 095°01'0 0.1
2017-Nov-18 16:34N 29°44' W 095°01'0 0.4
2017-Nov-18 16:26N 29°44' W 095°01'0 0.1
2017-Nov-18 15:24N 29°44' W 095°01'0 0.0
2017-Nov-17 22:29N 29°44' W 095°01'0 0.0
2017-Nov-17 20:08N 29°44' W 095°01'0 0.0
2017-Nov-17 19:57N 29°44' W 095°01'0 0.0
2017-Nov-17 13:58N 29°44' W 095°01'0 0.0
2017-Nov-17 13:29N 29°44' W 095°01'4 0.5
2017-Nov-17 05:55N 29°46' W 095°05'1 1.4
2017-Nov-17 05:29N 29°45' W 095°06'1 0.3
2017-Nov-17 03:18N 29°46' W 095°05'0 0.2
2017-Nov-17 01:22N 29°46' W 095°05'1 0.1
2017-Nov-16 06:42N 29°46' W 095°07'1 1.6
2017-Nov-16 06:14N 29°46' W 095°06'1 2.1
2017-Nov-16 05:58N 29°46' W 095°05'2 1.1
2017-Nov-16 03:59N 29°47' W 095°04'2 0.2
2017-Nov-15 17:02N 29°46' W 095°06'0 4.5
2017-Nov-15 16:58N 29°46' W 095°05'3 5.9
2017-Nov-15 16:29N 29°44' W 095°03'1 0.4
2017-Nov-15 13:18N 29°44' W 095°01'1 1.8
2017-Nov-15 13:00N 29°44' W 095°02'3 6.5
2017-Nov-15 12:30N 29°46' W 095°05'1 0.2
2017-Nov-15 08:07N 29°46' W 095°06'1 4.0
2017-Nov-15 07:59N 29°46' W 095°05'2 2.5
2017-Nov-15 07:16N 29°47' W 095°04'2 0.4
2017-Nov-15 01:04N 29°45' W 095°06'0 5.3
2017-Nov-15 01:00N 29°45' W 095°06'  
Track history (hours):
 
Tides and Currents Weather Stations Pressure Air Temp Water Temp Dewpoint Dewpoint Depression Visibility Wind Speed Wind Dir Waves Ship Positions

Capt. George Brumley

Owner: Genesis Marine, LLC, Houston, TX. More information available from US FCC via Universal Licensing System and Coast Guard Vessel Documentation Center.

Last reported at 2017-Nov-24 13:25 UTC. Time now 2017-Nov-25 02:09 UTC.
Position N 29°49' W 092°03'.

Length 25 m; draft 3 m.

Type: Other ship. MMSI: 367691190.

Date/timePositionNaut miles runAvg speedWind from/ knotsBaromVisibWave heightAir tempDewpointWater temp
2017-Nov-24 13:25N 29°49' W 092°03'2 4.7
2017-Nov-24 13:01N 29°48' W 092°05'2 4.7
2017-Nov-24 12:31N 29°47' W 092°08'2 4.0
2017-Nov-24 12:00N 29°47' W 092°10'2 3.7
2017-Nov-24 11:31N 29°47' W 092°12'1 1.7
2017-Nov-24 11:01N 29°47' W 092°13'1 1.9
2017-Nov-24 10:31N 29°48' W 092°14'0 0.0
2017-Nov-24 10:01N 29°48' W 092°14'0 0.0
2017-Nov-24 09:30N 29°48' W 092°14'0 0.0
2017-Nov-24 09:01N 29°48' W 092°14'0 0.0
2017-Nov-24 08:30N 29°48' W 092°14'0 0.0
2017-Nov-24 08:01N 29°48' W 092°14'0 0.0
2017-Nov-24 07:31N 29°48' W 092°14'0 0.1
2017-Nov-24 07:01N 29°48' W 092°14'0 0.1
2017-Nov-24 06:31N 29°48' W 092°14'1 2.0
2017-Nov-24 06:00N 29°48' W 092°15'2 3.6
2017-Nov-24 05:31N 29°49' W 092°17'2 3.4
2017-Nov-24 05:00N 29°50' W 092°19'2 4.0
2017-Nov-24 04:30N 29°51' W 092°21'38 4.3
2017-Nov-23 19:39N 29°56' W 093°04'1 4.7
2017-Nov-23 19:25N 29°56' W 093°06'2 4.7
2017-Nov-23 19:00N 29°56' W 093°08'2 4.0
2017-Nov-23 18:30N 29°57' W 093°10'2 3.6
2017-Nov-23 18:01N 29°58' W 093°11'2 3.3
2017-Nov-23 17:30N 29°59' W 093°13'2 4.0
2017-Nov-23 17:01N 30°01' W 093°14'1 2.3
2017-Nov-23 16:31N 30°02' W 093°15'1 2.8
2017-Nov-23 16:00N 30°03' W 093°16'2 3.2
2017-Nov-23 15:30N 30°04' W 093°16'1 2.9
2017-Nov-23 15:01N 30°05' W 093°18'1 1.4
2017-Nov-23 14:31N 30°06' W 093°18'0 0.0
2017-Nov-23 14:01N 30°06' W 093°18'0 0.0
2017-Nov-23 13:31N 30°06' W 093°18'0 0.0
2017-Nov-23 13:00N 30°06' W 093°18'0 0.2
2017-Nov-23 12:31N 30°06' W 093°18'1 1.4
2017-Nov-23 12:01N 30°06' W 093°19'2 3.9
2017-Nov-23 11:30N 30°04' W 093°21'1 2.7
2017-Nov-23 11:01N 30°04' W 093°22'1 1.2
2017-Nov-23 10:31N 30°04' W 093°23'1 2.7
2017-Nov-23 10:00N 30°04' W 093°24'1 2.6
2017-Nov-23 09:31N 30°04' W 093°26'0 0.2
2017-Nov-23 09:01N 30°04' W 093°26'0 0.1
2017-Nov-23 08:31N 30°04' W 093°26'0 0.0
2017-Nov-23 08:01N 30°04' W 093°26'0 0.0
2017-Nov-23 07:30N 30°04' W 093°26'0 0.0
2017-Nov-23 07:00N 30°04' W 093°26'0 0.0
2017-Nov-23 06:30N 30°04' W 093°26'0 0.0
2017-Nov-23 06:00N 30°04' W 093°26'0 0.0
2017-Nov-23 05:31N 30°04' W 093°26'0 0.0
2017-Nov-23 05:01N 30°04' W 093°26'0 0.0
2017-Nov-23 04:31N 30°04' W 093°26'0 0.0
2017-Nov-23 04:01N 30°04' W 093°26'0 0.0
2017-Nov-23 03:31N 30°04' W 093°26'0 0.0
2017-Nov-23 03:01N 30°04' W 093°26'0 0.0
2017-Nov-23 02:30N 30°04' W 093°26'0 0.0
2017-Nov-23 02:00N 30°04' W 093°26'0 0.0
2017-Nov-23 01:31N 30°04' W 093°26'0 0.0
2017-Nov-23 01:01N 30°04' W 093°26'0 0.0
2017-Nov-23 00:31N 30°04' W 093°26'0 0.0
2017-Nov-23 00:01N 30°04' W 093°26'0 0.0
2017-Nov-22 23:31N 30°04' W 093°26'0 0.0
2017-Nov-22 23:00N 30°04' W 093°26'0 0.0
2017-Nov-22 22:31N 30°04' W 093°26'0 0.0
2017-Nov-22 22:01N 30°04' W 093°26'0 0.0
2017-Nov-22 21:31N 30°04' W 093°26'0 0.0
2017-Nov-22 21:00N 30°04' W 093°26'0 0.2
2017-Nov-22 20:30N 30°04' W 093°26'0 0.9
2017-Nov-22 20:01N 30°04' W 093°26'1 2.3
2017-Nov-22 19:31N 30°04' W 093°28'  
2017-Nov-19 23:50N 29°33' W 094°54'2 5.2
2017-Nov-19 23:30N 29°34' W 094°56'3 5.7
2017-Nov-19 23:00N 29°37' W 094°57'3 5.9
2017-Nov-19 22:30N 29°40' W 094°58'3 5.7
2017-Nov-19 22:00N 29°42' W 095°00'2 4.2
2017-Nov-19 21:30N 29°44' W 095°01'0 0.3
2017-Nov-19 20:35N 29°44' W 095°01'0 0.0
2017-Nov-19 19:15N 29°44' W 095°01'0 0.0
2017-Nov-19 18:52N 29°44' W 095°01'0 0.0
2017-Nov-19 04:13N 29°44' W 095°01'0 0.0
2017-Nov-19 03:56N 29°44' W 095°01'0 0.0
2017-Nov-19 03:16N 29°44' W 095°01'0 0.0
2017-Nov-19 02:43N 29°44' W 095°01'0 0.0
2017-Nov-18 22:12N 29°44' W 095°01'0 0.0
2017-Nov-18 21:56N 29°44' W 095°01'0 0.1
2017-Nov-18 20:40N 29°44' W 095°01'0 0.0
2017-Nov-18 20:11N 29°44' W 095°01'0 0.1
2017-Nov-18 16:34N 29°44' W 095°01'0 0.4
2017-Nov-18 16:26N 29°44' W 095°01'0 0.1
2017-Nov-18 15:24N 29°44' W 095°01'0 0.0
2017-Nov-17 22:29N 29°44' W 095°01'0 0.0
2017-Nov-17 20:08N 29°44' W 095°01'0 0.0
2017-Nov-17 19:57N 29°44' W 095°01'0 0.0
2017-Nov-17 13:58N 29°44' W 095°01'0 0.0
2017-Nov-17 13:29N 29°44' W 095°01'4 0.5
2017-Nov-17 05:55N 29°46' W 095°05'1 1.4
2017-Nov-17 05:29N 29°45' W 095°06'1 0.3
2017-Nov-17 03:18N 29°46' W 095°05'0 0.2
2017-Nov-17 01:22N 29°46' W 095°05'1 0.1
2017-Nov-16 06:42N 29°46' W 095°07'1 1.6
2017-Nov-16 06:14N 29°46' W 095°06'1 2.1
2017-Nov-16 05:58N 29°46' W 095°05'2 1.1
2017-Nov-16 03:59N 29°47' W 095°04'2 0.2
2017-Nov-15 17:02N 29°46' W 095°06'0 4.5
2017-Nov-15 16:58N 29°46' W 095°05'3 5.9
2017-Nov-15 16:29N 29°44' W 095°03'1 0.4
2017-Nov-15 13:18N 29°44' W 095°01'1 1.8
2017-Nov-15 13:00N 29°44' W 095°02'3 6.5
2017-Nov-15 12:30N 29°46' W 095°05'1 0.2
2017-Nov-15 08:07N 29°46' W 095°06'1 4.0
2017-Nov-15 07:59N 29°46' W 095°05'2 2.5
2017-Nov-15 07:16N 29°47' W 095°04'2 0.4
2017-Nov-15 01:04N 29°45' W 095°06'0 5.3
2017-Nov-15 01:00N 29°45' W 095°06'  

Dump ship's entire track history